Regional Weather Roundup
Issued by NWS Little Rock, AR

Home | Current Version | Previous Version | Graphics & Text | Print | Product List | Glossary On
Versions: 1 2 3 4 5 6 7 8 9 10 11 12 13 14 15 16 17 18 19 20 21 22 23 24 25 26 27 28 29 30 31 32 33 34 35 36 37 38 39 40 41 42 43 44 45 46 47 48 49 50
000
ASUS44 KLZK 281605
RWRLZK

WEATHER ROUNDUP FOR ARKANSAS
NATIONAL WEATHER SERVICE LITTLE ROCK AR
1000 AM CST FRI NOV 28 2014

NOTE: "FAIR" INDICATES FEW OR NO CLOUDS BELOW 12,000 FEET WITH NO
SIGNIFICANT WEATHER AND/OR OBSTRUCTIONS TO VISIBILITY.

ARZ001-003-010-029-281700-
NORTHWEST ARKANSAS

CITY           SKY/WX    TMP DP  RH WIND       PRES   REMARKS
FAYETTEVILLE   SUNNY     49  31  49 S12       30.17F
FORT SMITH     SUNNY     44  32  62 E8        30.24F
HARRISON       SUNNY     47  30  51 S17G23    30.17F
BENTONVILLE    SUNNY     52  28  40 SW18G31   30.15S
ROGERS         SUNNY     50  30  46 S17       30.14F
SILOAM SPGS    SUNNY     48  28  46 S24G31    30.16F
HIGHFILL       SUNNY     51  31  46 S15       30.13F
SPRINGDALE     SUNNY     50  30  46 S23G32    30.17F
$$

ARZ004-005-016-281700-
NORTH CENTRAL ARKANSAS

CITY           SKY/WX    TMP DP  RH WIND       PRES   REMARKS
BATESVILLE     SUNNY     43  28  56 S14G22    30.32S
FLIPPIN        SUNNY     46  28  49 S9G17     30.20F
MTN HOME         N/A    N/A N/A N/A MISG      30.20F
$$

ARZ040-041-281700-
WEST CENTRAL ARKANSAS

CITY           SKY/WX    TMP DP  RH WIND       PRES   REMARKS
MENA           SUNNY     50  32  50 SW7       30.27F
MOUNT IDA      SUNNY     48  31  51 VRB6      30.26F
$$

ARZ009-017-025-026-028-281700-
NORTHEAST ARKANSAS

CITY           SKY/WX    TMP DP  RH WIND       PRES   REMARKS
CORNING        FAIR      41  32  70 S15       30.34F
JONESBORO      SUNNY     39  32  76 S15       30.36S
NEWPORT        SUNNY     42  33  70 S15       30.35F
WALNUT RIDGE   SUNNY     41  30  65 S18       30.34S
BLYTHEVILLE    SUNNY     49  29  46 S13       30.38S
$$

ARZ022-023-033-042-044-281700-
CENTRAL ARKANSAS

CITY           SKY/WX    TMP DP  RH WIND       PRES   REMARKS
LITTLE ROCK    SUNNY     44  31  60 S12       30.36F
N LITTLE ROCK  SUNNY     42  33  70 S9G18     30.36F
JACKSONVILLE   SUNNY     42  32  69 S9        30.35F
SEARCY         SUNNY     43  34  70 S9        30.36F
HOT SPRINGS    SUNNY     44  31  60 S7        30.33F
RUSSELLVILLE   SUNNY     43  32  65 VRB5      30.30F
CLINTON        FAIR      45  32  61 S10       30.33F
$$

ARZ036-281700-
EAST ARKANSAS

CITY           SKY/WX    TMP DP  RH WIND       PRES   REMARKS
WEST MEMPHIS   SUNNY     41  32  70 S15       30.37F
$$

ARZ050-053-066-070-073-281700-
SOUTHWEST ARKANSAS

CITY           SKY/WX    TMP DP  RH WIND       PRES   REMARKS
ARKADELPHIA    FAIR      42  35  76 SE5       30.35F
CAMDEN         SUNNY     46  32  57 MISG      30.37F
TEXARKANA      SUNNY     48  34  58 S10       30.33F
EL DORADO      SUNNY     47  34  60 S13       30.36F
DE QUEEN       SUNNY     46  35  65 S6        30.30F
$$

ARZ056-057-069-281700-
SOUTHEAST ARKANSAS

CITY           SKY/WX    TMP DP  RH WIND       PRES   REMARKS
PINE BLUFF     SUNNY     46  33  60 S15       30.36F
STUTTGART        N/A     45  34  65 S17       30.36F VSB 3/4
MONTICELLO     SUNNY     45  33  63 SE10      30.38F

$$




USA.gov is the U.S. government's official web portal to all federal, state and local government web resources and services.